Regional Weather Roundup
Issued by NWS Memphis, TN

Home | Current Version | Previous Version | Text Only | Print | Product List | Glossary On
Versions: 1 2 3 4 5 6 7 8 9 10 11 12 13 14 15 16 17 18 19 20 21 22 23 24 25 26 27 28 29 30 31 32 33 34 35 36 37 38 39 40 41 42 43 44 45 46 47 48 49 50
000
ASUS44 KMEG 251110
RWRMEG
MEMPHIS CWA HOURLY WEATHER ROUNDUP
NATIONAL WEATHER SERVICE MEMPHIS TN
600 AM CDT WED APR 25 2018

...WEST TENNESSEE...

CITY           SKY/WX    TMP DP  RH WIND       PRES   REMARKS
MEMPHIS INTL   FAIR      53  53 100 CALM      30.02S FOG
NWS MEMPHIS      N/A     49 N/A N/A MISG        N/A
JACKSON        FAIR      47  47 100 CALM      30.01F FOG
COVINGTON      FOG       48  48 100 CALM      30.02S VSB 1/2
SOMERVILLE     FOG       48  48 100 CALM      30.00F VSB 1/2
BOLIVAR        FOG       48  48 100 CALM      30.01F VSB 1/4
LEXINGTON      FOG       48  48 100 CALM      30.01R VSB 1/4
SELMER         CLOUDY    50  50 100 CALM      30.00S FOG
DYERSBURG      FOG       50  50 100 CALM      30.02R VSB 1/4
UNION CITY     CLEAR     52  52 100 CALM      30.00R FOG
PARIS          MOCLDY    52  50  93 CALM      30.00S FOG
HUNTINGDON     FOG       50  50 100 CALM      30.00S VSB 0


...EASTERN ARKANSAS...

CITY           SKY/WX    TMP DP  RH WIND       PRES   REMARKS
JONESBORO      FAIR      56  55  97 NW7       30.01S
WEST MEMPHIS   FOG       51  51 100 CALM      30.01S VSB 3/4
BATESVILLE     CLEAR     54  52  93 NW3       30.03S
NEWPORT        FAIR      54  52  93 SW3       30.02S
WALNUT RIDGE   FAIR      52  49  89 W3        30.01S
BLYTHEVILLE    FAIR      53  51  93 SW5       30.01S
SEARCY         FAIR      51  51 100 CALM      30.04R FOG
STUTTGART      FAIR      55  54  96 W3        30.04R
PINE BLUFF     FAIR      56  54  93 SW6       30.04S
MONTICELLO     FAIR      53  51  93 CALM      30.04R


...NORTH MISSISSIPPI...

CITY           SKY/WX    TMP DP  RH WIND       PRES   REMARKS
TUPELO         FAIR      53  50  89 CALM      30.01R
OXFORD         MOCLDY    46  46 100 CALM      30.04S FOG
BATESVILLE       N/A    N/A N/A N/A MISG        N/A
TUNICA         FOG       50  50 100 CALM      30.03S VSB 1/2
CLARKSDALE     MOCLDY    54  54 100 CALM      30.03S FOG
CORINTH        FOG       50  50 100 CALM      30.01S VSB 1/4
GREENWOOD      FAIR      51  49  92 CALM      30.04S
COLUMBUS       FAIR      53  53 100 CALM      30.01R
GOLDEN TRIANGL FAIR      53  52  96 NW5       30.02R


...SOUTHEAST MISSOURI...

CITY           SKY/WX    TMP DP  RH WIND       PRES   REMARKS
KENNETT        MOCLDY    50  50 100 SW7       29.99S FOG
MALDEN         FAIR      52  50  93 W5        30.01S
WEST PLAINS    CLEAR     51  45  79 N3        30.04S
POPLAR BLUFF   FAIR      47  47 100 S3        30.00S FOG
CAPE GIRARDEAU FOG       43  43 100 CALM      30.00R VSB 1/4


...NORTHWEST ALABAMA...

CITY           SKY/WX    TMP DP  RH WIND       PRES   REMARKS
MUSCLE SHOALS  CLOUDY    56  53  90 NW7       30.01R


...MIDDLE TENNESSEE...

CITY           SKY/WX    TMP DP  RH WIND       PRES   REMARKS
NASHVILLE      CLOUDY    57  52  83 NW10      29.97R
CLARKSVILLE    CLOUDY    53  50  89 W3        29.99R FOG
COLUMBIA       CLOUDY    55  55 100 VRB5      29.98R
LEWISBURG      CLOUDY    55  54  94 VRB5      29.97R


...WESTERN KENTUCKY...

CITY           SKY/WX    TMP DP  RH WIND       PRES   REMARKS
PADUCAH        FAIR      50  48  93 W3        29.98S FOG
FORT CAMPBELL  FOG       51  51 100 CALM      29.99  VSB 1/4


...CENTRAL ARKANSAS...

CITY           SKY/WX    TMP DP  RH WIND       PRES   REMARKS
LITTLE ROCK    PTCLDY    54  54 100 SW6       30.04R


SKY/WX REPORTED AS FAIR MEANS FEW OR NO CLOUDS BELOW
12 THOUSAND FEET.




USA.gov is the U.S. government's official web portal to all federal, state and local government web resources and services.